Regional Weather Roundup
Issued by NWS Goodland, KS

Home | Current Version | Previous Version | Graphics & Text | Print | Product List | Glossary On
Versions: 1 2 3 4 5 6 7 8 9 10 11 12 13 14 15 16 17 18 19 20 21 22 23 24 25 26 27 28 29 30 31 32 33 34 35 36 37 38 39 40 41 42 43 44 45 46 47 48 49 50
515
ASUS43 KGLD 231708
RWRGLD

GOODLAND FORECAST AREA HOURLY WEATHER ROUNDUP
NATIONAL WEATHER SERVICE GOODLAND KS
1100 AM MDT TUE MAY 23 2017

...OFFICIAL OBSERVATIONS...

CITY           SKY/WX    TMP DP  RH WIND       PRES   REMARKS
GOODLAND KS    PTSUNNY   57  39  51 NW23G32   30.08F
HILL CITY KS   NOT AVBL
IMPERIAL NEB   CLOUDY    59  39  47 N22G30    30.09F
MCCOOK NEB     CLOUDY    65  40  39 N25G35    30.03F
AKRON CO       PTSUNNY   56  36  47 N24G35    30.15F
BURLINGTON CO  PTSUNNY   57  38  48 N18G25    30.12F
LIMON CO       CLOUDY    54  34  46 N25G31    30.18F
$$

...UNOFFICIAL OBSERVATIONS...

CITY           SKY/WX    TMP DP  RH WIND       PRES   REMARKS
LENORA KS        N/A     62  32  32 MISG        N/A
NORTON KS      CLOUDY    61  37  41 N21G31    30.00F
SHARON SPRINGS   N/A     58  43  57 NW18G29     N/A
TRENTON NEB      N/A     56  32  40 NW12        N/A
KIT CARSON CO    N/A     57  37  47 MISG        N/A
YUMA CO        CLOUDY    54  25  32 N18G28    30.13F
$$




USA.gov is the U.S. government's official web portal to all federal, state and local government web resources and services.